Simultaneous Nadir Overpasses (SNOs) Predictions

Prediction of SNOs between GOES-15 and LANDSAT-8 Satellite Orbit:

Table of predicted SNOs for the next 14.0 days since TLE Epoch: 9/17/2022
Index Date Time (GOES-15) GOES-15 Lat,Lon LANDSAT-8 Lat,Lon Distance(km) Time Diff (sec)
1 09/18/2022 18:43:26 -0.29,-127.78 -0.23,-128.01 26.67 80
2 09/20/2022 18:33:55 -0.28,-127.84 -0.86,-125.06 316.68 80
3 09/21/2022 06:55:20 0.30,-127.84 -0.20,-130.26 274.29 80
4 09/23/2022 06:40:29 0.29,-127.90 0.44,-127.30 68.58 80
5 09/25/2022 06:28:18 0.29,-127.96 1.09,-124.35 411.19 80
6 09/25/2022 18:49:33 -0.30,-127.99 0.04,-129.50 172.39 80
7 09/27/2022 18:40:02 -0.30,-128.04 -0.62,-126.55 169.91 80
8 09/28/2022 07:01:26 0.31,-128.05 -0.49,-131.74 419.72 80
9 09/30/2022 06:49:15 0.31,-128.09 0.18,-128.79 78.52 80
